EW2348 Weather Reports


Display with metric or nautical units.
time (UTC)temp
F
wind
direction
speed
MPH
gust
MPH
rain 1hr
in
rain 24hr
in
rain mn
in
humidity
%
barometer
mb
20141022061018 46 318 1.0 4.0 0.00 0.01 0.00 80 1021.4
20141022060018 46 320 2.0 4.0 0.00 0.01 0.00 80 1021.3
20141022055018 46 315 1.0 4.0 0.00 0.01 0.00 79 1021.3
20141022054017 46 298 1.0 5.0 0.00 0.01 0.00 79 1021.3
20141022052018 46 302 2.0 8.0 0.00 0.01 0.00 78 1021.4
20141022044017 46 311 4.0 12.0 0.00 0.01 0.00 81 1021.2
20141022042017 46 319 2.0 6.0 0.00 0.01 0.00 82 1021.2
20141022041017 46 319 1.0 8.0 0.00 0.01 0.00 83 1021.3
20141022040017 47 303 3.0 9.0 0.00 0.01 0.00 84 1021.3
20141022035016 47 312 2.0 5.0 0.00 0.01 0.01 86 1021.2
20141022034016 47 299 0.0 4.0 0.00 0.01 0.01 86 1021.3
20141022033016 47 324 2.0 9.0 0.00 0.01 0.01 86 1021.2
20141022032016 47 323 2.0 6.0 0.00 0.01 0.01 85 1021.2
20141022031016 47 319 2.0 7.0 0.00 0.01 0.01 83 1021.1
20141022030015 46 309 2.0 5.0 0.00 0.01 0.01 77 1021.1
20141022024016 46 330 0.0 2.0 0.00 0.01 0.01 76 1021.0
20141022023016 46 312 0.0 2.0 0.00 0.01 0.01 76 1020.9
20141022022015 46 339 0.0 3.0 0.00 0.01 0.01 77 1021.0
20141022021016 46 326 1.0 2.0 0.00 0.01 0.01 81 1020.7
20141022020015 46 317 1.0 2.0 0.00 0.01 0.01 83 1020.6
20141022015015 46 328 0.0 3.0 0.00 0.01 0.01 84 1020.5
20141022014015 47 321 1.0 4.0 0.00 0.01 0.01 85 1020.3
20141022013014 47 335 1.0 4.0 0.00 0.01 0.01 86 1020.3
20141022012016 47 330 2.0 4.0 0.00 0.01 0.01 87 1020.3
20141022010014 48 291 1.0 3.0 0.00 0.01 0.01 87 1020.0
20141022002014 49 297 2.0 5.0 0.00 0.01 0.01 89 1019.9
20141022001014 50 315 2.0 8.0 0.00 0.01 0.01 87 1019.8
20141022000015 50 312 2.0 7.0 0.00 0.01 0.01 86 1019.7
20141021234014 50 302 2.0 4.0 0.00 0.01 0.01 84 1019.4
20141021233013 51 308 1.0 7.0 0.00 0.02 0.01 84 1019.4
20141021230013 51 258 2.0 4.0 0.00 0.02 0.01 81 1019.0
20141021225013 51 209 0.0 4.0 0.00 0.02 0.01 82 1018.9
20141021222013 52 170 1.0 2.0 0.00 0.02 0.01 81 1018.6
20141021221013 52 297 0.0 3.0 0.00 0.02 0.01 79 1018.6
20141021220013 52 78 1.0 3.0 0.00 0.02 0.01 78 1018.6
20141021215013 52 292 0.0 4.0 0.00 0.02 0.01 77 1018.5
20141021214013 53 304 0.0 4.0 0.00 0.02 0.01 77 1018.5
20141021213012 53 336 1.0 5.0 0.00 0.02 0.01 76 1018.4
20141021212012 53 295 2.0 3.0 0.00 0.02 0.01 76 1018.3
20141021211013 53 261 1.0 9.0 0.00 0.02 0.01 73 1018.2
20141021205012 54 292 1.0 8.0 0.00 0.02 0.01 72 1018.0
20141021204012 54 277 1.0 9.0 0.00 0.02 0.01 73 1018.0
20141021200011 54 247 0.0 5.0 0.00 0.02 0.01 75 1017.6
20141021194011 54 280 1.0 5.0 0.00 0.02 0.01 73 1017.4
20141021193011 54 252 0.0 5.0 0.00 0.02 0.01 72 1017.3
20141021192011 54 294 1.0 8.0 0.00 0.02 0.01 72 1017.2
20141021191011 54 280 2.0 7.0 0.00 0.02 0.01 71 1017.0
20141021190010 54 185 3.0 8.0 0.00 0.02 0.01 69 1016.9
20141021185011 54 337 2.0 6.0 0.00 0.02 0.01 70 1016.8
20141021182010 54 284 0.0 8.0 0.00 0.02 0.01 71 1016.8
20141021175010 54 276 2.0 9.0 0.00 0.02 0.01 70 1016.7
20141021174010 54 328 2.0 10.0 0.00 0.02 0.01 70 1016.7
20141021173010 54 284 1.0 4.0 0.00 0.02 0.01 70 1016.6
20141021172009 54 252 1.0 13.0 0.00 0.02 0.01 69 1016.7
20141021171010 55 268 2.0 8.0 0.00 0.02 0.01 66 1016.6
20141021165009 55 245 1.0 6.0 0.00 0.02 0.01 68 1016.7
20141021164009 55 281 2.0 8.0 0.00 0.02 0.01 68 1016.8
20141021163009 55 273 2.0 5.0 0.00 0.02 0.01 67 1016.6
20141021162009 57 267 3.0 10.0 0.00 0.02 0.01 61 1016.6
20141021161009 61 178 2.0 11.0 0.00 0.02 0.01 59 1016.6
20141021155008 58 226 2.0 8.0 0.00 0.02 0.01 66 1016.6
20141021153009 55 317 2.0 4.0 0.01 0.02 0.01 72 1016.6
20141021152008 55 267 2.0 6.0 0.01 0.02 0.01 71 1016.7
20141021151008 56 234 1.0 4.0 0.01 0.02 0.01 73 1016.5
20141021145008 55 204 2.0 8.0 0.01 0.02 0.01 75 1016.4
20141021141008 54 217 1.0 8.0 0.00 0.01 0.00 81 1016.1
20141021135007 52 187 1.0 4.0 0.00 0.01 0.00 84 1016.3
20141021133008 51 191 2.0 4.0 0.00 0.01 0.00 82 1016.0
20141021132007 50 185 2.0 5.0 0.00 0.01 0.00 82 1015.8
20141021130007 49 183 1.0 5.0 0.00 0.02 0.00 78 1015.5
20141021125007 48 218 2.0 4.0 0.00 0.02 0.00 74 1015.3
20141021124007 48 188 2.0 5.0 0.00 0.02 0.00 68 1015.1
20141021122006 47 212 2.0 7.0 0.00 0.02 0.00 51 1015.0
20141021121006 47 185 2.0 4.0 0.00 0.02 0.00 47 1014.8
20141021120007 47 187 2.0 3.0 0.00 0.02 0.00 50 1014.7
20141021114006 47 188 1.0 3.0 0.00 0.02 0.00 62 1014.5
20141021113006 47 193 0.0 3.0 0.00 0.02 0.00 64 1014.4
20141021111006 48 157 2.0 4.0 0.00 0.02 0.00 68 1014.3
20141021105005 49 194 1.0 6.0 0.00 0.02 0.00 63 1014.2
20141021104006 50 202 1.0 3.0 0.00 0.02 0.00 60 1013.9
20141021103005 50 201 1.0 6.0 0.00 0.02 0.00 58 1014.0
20141021102005 49 200 0.0 4.0 0.00 0.02 0.00 60 1014.0
20141021095005 50 181 1.0 4.0 0.00 0.02 0.00 69 1013.7
20141021094005 50 182 2.0 4.0 0.00 0.02 0.00 71 1013.6
20141021093004 51 191 2.0 4.0 0.00 0.02 0.00 71 1013.4
20141021092004 51 188 0.0 3.0 0.00 0.02 0.00 70 1013.3
20141021091005 51 185 1.0 3.0 0.00 0.02 0.00 65 1013.2
20141021085004 51 181 2.0 4.0 0.00 0.02 0.00 61 1013.2
20141021082004 51 181 1.0 2.0 0.00 0.02 0.00 66 1012.9
20141021075003 52 171 0.0 4.0 0.00 0.02 0.00 63 1012.9
20141021073019 52 169 0.0 2.0 0.00 0.02 0.00 53 1013.0
20141021072018 52 148 0.0 2.0 0.00 0.02 0.00 51 1012.9
20141021071019 51 179 1.0 3.0 0.00 0.02 0.00 53 1012.9
20141021070019 51 172 1.0 2.0 0.00 0.02 0.00 57 1012.8
20141021065018 51 181 0.0 1.0 0.00 0.02 0.00 59 1012.8
20141021064018 51 151 0.0 2.0 0.00 0.02 0.00 60 1012.7